Location: *
(33.8649°S, 62.1526°E)
Time: 10:14:58
(UTC+00:00)

Cosmos 44 Rocket - Pass Details

Date: 10 December 2021
Orbit: 648 x 741 km, 65.1° (Epoch: 23 January)

Event Time Altitude Azimuth Distance (km) Brightness Sun altitude
Rises 16:37:53 0° 317° (NW) 2,958 6.5 -17.9°
Reaches altitude 10° 16:40:15 10° 310° (NW) 2,054 5.8 -18.3°
Maximum altitude 16:44:41 43° 238° (WSW) 919 4.4 -18.9°
Drops below altitude 10° 16:49:13 10° 165° (SSE) 2,096 6.2 -19.5°
Sets 16:51:39 0° 158° (SSE) 3,026 6.9 -19.9°
